Regional Weather Roundup
Issued by NWS

Home | Current Version | Previous Version | Graphics & Text | Print | Product List | Glossary On
Versions: 1 2 3 4 5 6 7 8 9 10 11 12 13 14 15 16 17 18 19 20 21 22 23 24 25 26 27 28 29 30 31 32 33 34 35 36 37 38 39 40 41 42 43 44 45 46 47 48 49 50
044
ASUS45 KBOI 242310
RWRID

IDAHO REGIONAL WEATHER ROUNDUP
NATIONAL WEATHER SERVICE BOISE ID
500 PM MDT SAT JUN 24 2017

NOTE: "FAIR" INDICATES FEW OR NO CLOUDS BELOW 12000 FEET
WITH NO SIGNIFICANT WEATHER AND/OR OBSTRUCTIONS TO VISIBILITY

IDZ012-014-250000-
SOUTHWEST IDAHO


CITY           SKY/WX    TMP DP  RH WIND       PRES   REMARKS
BOISE          SUNNY     87  27  11 NW9       30.12F
CALDWELL       SUNNY     87  38  17 NW7       30.11F
MOUNTAIN HOME  SUNNY     89  32  12 NW14G21   30.10F
$$

IDZ016-017-250000-
SOUTHCENTRAL IDAHO


CITY           SKY/WX    TMP DP  RH WIND       PRES   REMARKS
BURLEY         SUNNY     82  32  16 W12       30.17F
JEROME         SUNNY     85  37  18 SW7       30.18F
TWIN FALLS     SUNNY     83  36  18 W10       30.19F
$$

IDZ019>023-250000-
SOUTHEAST IDAHO


CITY           SKY/WX    TMP DP  RH WIND       PRES   REMARKS
IDAHO FALLS    MOSUNNY   80  44  27 NW7       30.23F
POCATELLO      MOSUNNY   82  32  16 N9        30.21F
REXBURG        SUNNY     78  35  21 MISG      30.23F
$$

IDZ006-010-011-018-031-032-250000-
CENTRAL IDAHO MOUNTAINS


CITY           SKY/WX    TMP DP  RH WIND       PRES   REMARKS
MCCALL         SUNNY     79  30  16 SW12      30.24F
HAILEY         SUNNY     79  43  27 E6        30.24F
STANLEY          N/A     79  28  15 W9        30.30S
SALMON         SUNNY     81  32  17 N5        30.18R
CHALLIS        SUNNY     83  29  14 N6        30.19F
$$

IDZ002-004-006-007-026-250000-
NORTHERN IDAHO


CITY           SKY/WX    TMP DP  RH WIND       PRES   REMARKS
LEWISTON       SUNNY     90  27  10 NW5       30.12F
LOWELL           N/A     89  46  22 VRB7      30.09S
COEUR D`ALENE  SUNNY     84  36  18 VRB7      30.19F
MULLAN PASS    MOSUNNY   70  34  26 VRB3      30.36F
$$




USA.gov is the U.S. government's official web portal to all federal, state and local government web resources and services.